QPF
0.01 0.01 0.01 0.01 0.01 0.01 0.01 0.01 0.01 0.00 0.00 0.00 0.00 0.00 0.00 0.00 0.00 0.00 0.01 0.01 0.01 0.01 0.01 0.01 0.01 0.01 0.01 0.00 0.00 0.00 0.00 0.00 0.00 0.00 0.00 0.00 0.00 0.00 0.00 0.00 0.00 0.00 0.00 0.00
0.00 0.01 0.01 0.01 0.01 0.01 0.01 0.01 0.01 0.00 0.00 0.00 0.00 0.00 0.00 0.00 0.00 0.00 0.00 0.01 0.01 0.01 0.00 0.00 0.00 0.01 0.01 0.00 0.00 0.00 0.00 0.00 0.00 0.00 0.00 0.00 0.00 0.00 0.00 0.00 0.00 0.00 0.00 0.00
0.01 0.01 0.01 0.02 0.01 0.01 0.00 0.00 0.00 0.00 0.00 0.00 0.00 0.00 0.00 0.00 0.00 0.00 0.00 0.01 0.00 0.00 0.00 0.00 0.00 0.01 0.01 0.01 0.01 0.00 0.00 0.00 0.00 0.00 0.00 0.00 0.00 0.00 0.00 0.00 0.00 0.00 0.00 0.00
0.00 0.01 0.01 0.01 0.00 0.00 0.01 0.00 0.00 0.00 0.00 0.00 0.01 0.00 0.00 0.00 0.00 0.00 0.00 0.01 0.00 0.00 0.00 0.00 0.01 0.01 0.01 0.01 0.01 0.01 0.01 0.00 0.00 0.00 0.00 0.00 0.00 0.00 0.00 0.00 0.00 0.00 0.00 0.00
0.01 0.00 0.01 0.01 0.01 0.01 0.00 0.00 0.00 0.00 0.00 0.00 0.00 0.00 0.00 0.00 0.00 0.00 0.00 0.00 0.00 0.00 0.00 0.01 0.01 0.01 0.01 0.01 0.01 0.01 0.01 0.01 0.01 0.00 0.00 0.00 0.00 0.00 0.00 0.00 0.00 0.00 0.00 0.00
0.01 0.00 0.01 0.02 0.01 0.00 0.00 0.00 0.00 0.00 0.00 0.00 0.00 0.00 0.00 0.00 0.00 0.00 0.00 0.00 0.00 0.00 0.00 0.00 0.01 0.01 0.01 0.01 0.01 0.00 0.01 0.01 0.02 0.01 0.01 0.01 0.00 0.00 0.00 0.00 0.00 0.00 0.00 0.00
0.01 0.01 0.01 0.01 0.00 0.00 0.00 0.00 0.00 0.00 0.00 0.00 0.00 0.00 0.00 0.00 0.00 0.00 0.00 0.00 0.00 0.00 0.00 0.00 0.00 0.00 0.00 0.00 0.00 0.00 0.01 0.01 0.01 0.01 0.01 0.01 0.02 0.01 0.00 0.00 0.00 0.00 0.00 0.00
0.00 0.00 0.00 0.00 0.00 0.00 0.00 0.00 0.00 0.00 0.00 0.00 0.00 0.00 0.00 0.00 0.00 0.00 0.00 0.00 0.00 0.00 0.00 0.00 0.01 0.00 0.00 0.00 0.00 0.00 0.01 0.01 0.01 0.01 0.01 0.02 0.02 0.01 0.01 0.01 0.00 0.00 0.00 0.00
0.00 0.00 0.00 0.00 0.00 0.00 0.00 0.00 0.00 0.00 0.00 0.00 0.00 0.00 0.00 0.00 0.00 0.00 0.00 0.00 0.00 0.00 0.00 0.00 0.00 0.00 0.00 0.00 0.00 0.00 0.00 0.00 0.00 0.01 0.01 0.01 0.01 0.01 0.01 0.01 0.01 0.00 0.00 0.00
0.00 0.00 0.00 0.00 0.00 0.00 0.00 0.00 0.00 0.00 0.00 0.00 0.00 0.00 0.00 0.00 0.00 0.00 0.00 0.00 0.00 0.00 0.00 0.00 0.00 0.00 0.01 0.01 0.01 0.01 0.01 0.01 0.01 0.01 0.01 0.01 0.01 0.01 0.00 0.00 0.01 0.01 0.00 0.00
0.00 0.00 0.00 0.00 0.00 0.00 0.00 0.00 0.00 0.00 0.00 0.00 0.00 0.00 0.00 0.00 0.00 0.00 0.00 0.00 0.00 0.00 0.00 0.00 0.00 0.01 0.01 0.01 0.01 0.01 0.01 0.01 0.01 0.01 0.01 0.00 0.00 0.00 0.00 0.00 0.00 0.00 0.00 0.00
0.00 0.00 0.00 0.00 0.00 0.00 0.00 0.00 0.00 0.00 0.00 0.00 0.00 0.00 0.00 0.00 0.00 0.00 0.00 0.00 0.00 0.00 0.01 0.00 0.00 0.01 0.01 0.01 0.01 0.01 0.01 0.01 0.01 0.01 0.00 0.00 0.00 0.00 0.00 0.00 0.00 0.00 0.00 0.00
0.00 0.00 0.00 0.00 0.00 0.00 0.00 0.00 0.00 0.00 0.00 0.00 0.00 0.00 0.00 0.00 0.00 0.00 0.00 0.00 0.00 0.00 0.00 0.01 0.01 0.00 0.00 0.01 0.01 0.01 0.00 0.00 0.01 0.01 0.00 0.00 0.00 0.00 0.00 0.00 0.00 0.00 0.00 0.00
0.00 0.00 0.00 0.00 0.00 0.00 0.00 0.00 0.00 0.00 0.00 0.00 0.00 0.00 0.00 0.00 0.00 0.00 0.00 0.00 0.00 0.00 0.00 0.00 0.00 0.01 0.00 0.00 0.00 0.00 0.00 0.00 0.00 0.01 0.01 0.01 0.01 0.00 0.00 0.00 0.00 0.00 0.00 0.00
0.00 0.00 0.00 0.00 0.00 0.00 0.00 0.00 0.00 0.00 0.00 0.00 0.00 0.00 0.00 0.00 0.00 0.00 0.00 0.01 0.01 0.01 0.00 0.00 0.00 0.00 0.00 0.00 0.00 0.01 0.00 0.00 0.00 0.01 0.01 0.01 0.01 0.01 0.01 0.01 0.01 0.01 0.01 0.00
0.00 0.00 0.00 0.00 0.00 0.00 0.00 0.00 0.00 0.00 0.00 0.00 0.00 0.00 0.00 0.00 0.00 0.00 0.01 0.00 0.01 0.00 0.00 0.00 0.00 0.00 0.00 0.00 0.00 0.01 0.01 0.01 0.01 0.01 0.01 0.01 0.01 0.01 0.01 0.01 0.01 0.01 0.01 0.01
0.01 0.00 0.00 0.00 0.00 0.00 0.00 0.00 0.00 0.00 0.00 0.00 0.00 0.00 0.00 0.00 0.00 0.00 0.00 0.00 0.00 0.00 0.00 0.00 0.00 0.00 0.00 0.00 0.00 0.00 0.00 0.00 0.01 0.01 0.01 0.01 0.01 0.01 0.01 0.01 0.01 0.01 0.01 0.01
0.01 0.01 0.01 0.01 0.01 0.00 0.00 0.00 0.00 0.00 0.00 0.00 0.00 0.00 0.00 0.00 0.00 0.00 0.00 0.00 0.00 0.00 0.00 0.00 0.00 0.00 0.00 0.00 0.00 0.00 0.00 0.00 0.00 0.00 0.01 0.01 0.01 0.01 0.01 0.01 0.01 0.01 0.01 0.01
0.00 0.00 0.00 0.00 0.00 0.00 0.00 0.00 0.00 0.00 0.00 0.00 0.00 0.00 0.00 0.00 0.00 0.00 0.00 0.00 0.00 0.00 0.00 0.00 0.00 0.00 0.00 0.00 0.00 0.00 0.00 0.00 0.00 0.00 0.00 0.00 0.01 0.01 0.01 0.01 0.01 0.01 0.01 0.01
0.00 0.00 0.00 0.00 0.00 0.00 0.00 0.00 0.00 0.00 0.00 0.00 0.00 0.00 0.00 0.00 0.00 0.00 0.00 0.00 0.00 0.00 0.00 0.00 0.00 0.00 0.00 0.00 0.00 0.00 0.00 0.00 0.00 0.00 0.00 0.00 0.00 0.01 0.01 0.01 0.01 0.01 0.01 0.01
0.00 0.00 0.00 0.00 0.00 0.00 0.00 0.00 0.00 0.00 0.00 0.00 0.00 0.00 0.00 0.00 0.00 0.00 0.00 0.00 0.00 0.00 0.00 0.00 0.00 0.00 0.01 0.00 0.00 0.00 0.00 0.00 0.00 0.00 0.00 0.00 0.00 0.00 0.00 0.01 0.01 0.01 0.01 0.02
0.00 0.00 0.00 0.00 0.00 0.00 0.00 0.00 0.00 0.00 0.00 0.00 0.00 0.00 0.00 0.00 0.00 0.00 0.00 0.00 0.00 0.00 0.00 0.00 0.00 0.00 0.01 0.01 0.01 0.00 0.00 0.00 0.00 0.00 0.00 0.00 0.00 0.00 0.00 0.00 0.01 0.01 0.01 0.01
0.00 0.00 0.00 0.00 0.00 0.00 0.00 0.00 0.00 0.00 0.00 0.00 0.00 0.00 0.00 0.00 0.00 0.00 0.00 0.00 0.00 0.00 0.00 0.00 0.00 0.00 0.00 0.01 0.01 0.00 0.00 0.00 0.00 0.00 0.00 0.00 0.00 0.00 0.00 0.00 0.00 0.01 0.01 0.01
0.00 0.00 0.00 0.00 0.00 0.00 0.00 0.00 0.00 0.00 0.00 0.00 0.00 0.00 0.00 0.00 0.00 0.00 0.00 0.00 0.00 0.00 0.00 0.00 0.00 0.00 0.00 0.00 0.00 0.00 0.00 0.00 0.00 0.00 0.00 0.00 0.00 0.00 0.00 0.00 0.00 0.01 0.01 0.02
0.00 0.00 0.00 0.00 0.00 0.00 0.00 0.00 0.00 0.00 0.00 0.00 0.00 0.00 0.00 0.00 0.00 0.00 0.00 0.00 0.00 0.00 0.00 0.00 0.00 0.00 0.00 0.00 0.00 0.00 0.00 0.00 0.01 0.01 0.01 0.01 0.00 0.00 0.00 0.00 0.00 0.00 0.00 0.01
0.00 0.00 0.00 0.00 0.00 0.00 0.00 0.00 0.00 0.00 0.00 0.00 0.00 0.00 0.00 0.00 0.00 0.00 0.00 0.00 0.00 0.00 0.00 0.00 0.00 0.00 0.00 0.00 0.00 0.00 0.00 0.01 0.01 0.01 0.01 0.01 0.01 0.01 0.01 0.01 0.01 0.01 0.01 0.01
0.00 0.00 0.00 0.00 0.00 0.00 0.00 0.00 0.00 0.00 0.00 0.00 0.00 0.00 0.00 0.00 0.00 0.00 0.00 0.00 0.00 0.00 0.00 0.00 0.00 0.00 0.00 0.00 0.00 0.01 0.01 0.01 0.01 0.01 0.01 0.01 0.01 0.01 0.02 0.02 0.02 0.02 0.02 0.02
MSLP
1017.22 1017.58 1017.89 1018.11 1018.21 1018.14 1017.86 1017.36 1016.66 1015.79 1014.83 1013.86 1012.97 1012.25 1011.76 1011.55 1011.62 1011.93 1012.44 1013.06 1013.72 1014.36 1014.92 1015.38 1015.74 1016.03 1016.28 1016.52 1016.80 1017.12 1017.50 1017.93 1018.38 1018.83 1019.26 1019.64 1019.96 1020.23 1020.46 1020.67 1020.86 1021.07 1021.28 1021.51
1017.07 1017.34 1017.51 1017.57 1017.49 1017.24 1016.82 1016.24 1015.51 1014.69 1013.83 1013.00 1012.27 1011.70 1011.34 1011.21 1011.31 1011.61 1012.06 1012.62 1013.21 1013.79 1014.33 1014.80 1015.21 1015.57 1015.90 1016.23 1016.58 1016.96 1017.38 1017.82 1018.27 1018.71 1019.13 1019.50 1019.84 1020.13 1020.39 1020.63 1020.86 1021.09 1021.32 1021.56
1016.92 1017.07 1017.09 1016.97 1016.71 1016.30 1015.77 1015.12 1014.40 1013.63 1012.88 1012.19 1011.61 1011.19 1010.94 1010.88 1010.99 1011.26 1011.65 1012.13 1012.64 1013.17 1013.67 1014.15 1014.60 1015.02 1015.44 1015.85 1016.28 1016.72 1017.17 1017.63 1018.09 1018.53 1018.94 1019.32 1019.67 1019.99 1020.29 1020.57 1020.83 1021.09 1021.34 1021.58
1016.75 1016.77 1016.64 1016.35 1015.93 1015.40 1014.77 1014.08 1013.38 1012.69 1012.05 1011.50 1011.06 1010.76 1010.60 1010.59 1010.70 1010.93 1011.25 1011.63 1012.06 1012.52 1012.98 1013.46 1013.93 1014.41 1014.89 1015.38 1015.88 1016.37 1016.86 1017.34 1017.80 1018.24 1018.66 1019.05 1019.42 1019.78 1020.12 1020.44 1020.75 1021.04 1021.31 1021.56
1016.53 1016.41 1016.13 1015.70 1015.16 1014.52 1013.84 1013.15 1012.49 1011.88 1011.36 1010.94 1010.63 1010.44 1010.36 1010.37 1010.47 1010.65 1010.89 1011.18 1011.52 1011.90 1012.32 1012.76 1013.25 1013.75 1014.28 1014.82 1015.37 1015.90 1016.42 1016.91 1017.38 1017.83 1018.26 1018.67 1019.07 1019.46 1019.85 1020.22 1020.58 1020.92 1021.22 1021.48
1016.19 1015.93 1015.52 1014.98 1014.36 1013.67 1012.99 1012.33 1011.74 1011.23 1010.83 1010.54 1010.34 1010.24 1010.22 1010.25 1010.34 1010.46 1010.62 1010.82 1011.07 1011.36 1011.71 1012.12 1012.58 1013.09 1013.64 1014.20 1014.76 1015.31 1015.85 1016.35 1016.83 1017.29 1017.73 1018.17 1018.60 1019.04 1019.48 1019.91 1020.32 1020.70 1021.03 1021.32
1015.66 1015.28 1014.77 1014.17 1013.51 1012.83 1012.18 1011.59 1011.10 1010.72 1010.44 1010.27 1010.18 1010.17 1010.19 1010.24 1010.30 1010.38 1010.46 1010.58 1010.73 1010.94 1011.22 1011.57 1011.99 1012.47 1012.99 1013.55 1014.11 1014.66 1015.19 1015.70 1016.18 1016.65 1017.12 1017.58 1018.05 1018.54 1019.02 1019.50 1019.96 1020.39 1020.76 1021.08
1014.91 1014.44 1013.88 1013.25 1012.61 1011.98 1011.41 1010.94 1010.57 1010.31 1010.17 1010.12 1010.14 1010.19 1010.27 1010.33 1010.38 1010.41 1010.44 1010.47 1010.54 1010.67 1010.87 1011.14 1011.50 1011.92 1012.41 1012.93 1013.46 1013.99 1014.51 1015.02 1015.51 1015.99 1016.47 1016.97 1017.48 1018.00 1018.53 1019.05 1019.56 1020.02 1020.43 1020.78
1013.98 1013.45 1012.87 1012.27 1011.68 1011.15 1010.70 1010.35 1010.12 1010.01 1010.00 1010.06 1010.18 1010.30 1010.42 1010.50 1010.54 1010.55 1010.53 1010.50 1010.50 1010.55 1010.67 1010.87 1011.15 1011.51 1011.93 1012.40 1012.89 1013.39 1013.89 1014.39 1014.88 1015.37 1015.88 1016.40 1016.94 1017.49 1018.05 1018.60 1019.13 1019.62 1020.06 1020.43
1012.94 1012.39 1011.83 1011.29 1010.79 1010.38 1010.06 1009.86 1009.78 1009.80 1009.91 1010.07 1010.27 1010.46 1010.61 1010.71 1010.76 1010.75 1010.70 1010.64 1010.59 1010.58 1010.63 1010.76 1010.97 1011.25 1011.60 1012.01 1012.45 1012.92 1013.39 1013.88 1014.37 1014.87 1015.40 1015.93 1016.49 1017.06 1017.64 1018.20 1018.74 1019.23 1019.68 1020.07
1011.93 1011.39 1010.87 1010.41 1010.03 1009.74 1009.56 1009.50 1009.54 1009.68 1009.88 1010.13 1010.38 1010.62 1010.80 1010.93 1010.98 1010.97 1010.92 1010.83 1010.76 1010.71 1010.71 1010.78 1010.92 1011.14 1011.43 1011.78 1012.17 1012.60 1013.05 1013.52 1014.02 1014.53 1015.06 1015.61 1016.17 1016.75 1017.32 1017.87 1018.40 1018.88 1019.32 1019.72
1011.06 1010.56 1010.12 1009.75 1009.48 1009.31 1009.25 1009.29 1009.43 1009.64 1009.91 1010.20 1010.49 1010.75 1010.95 1011.09 1011.15 1011.15 1011.10 1011.02 1010.94 1010.87 1010.84 1010.87 1010.97 1011.14 1011.37 1011.67 1012.02 1012.42 1012.85 1013.32 1013.81 1014.33 1014.86 1015.42 1015.98 1016.54 1017.09 1017.62 1018.12 1018.58 1019.00 1019.38
1010.42 1009.99 1009.64 1009.37 1009.19 1009.12 1009.15 1009.26 1009.45 1009.70 1009.99 1010.29 1010.57 1010.83 1011.03 1011.17 1011.24 1011.25 1011.22 1011.15 1011.07 1011.00 1010.96 1010.97 1011.04 1011.17 1011.37 1011.63 1011.96 1012.33 1012.75 1013.21 1013.71 1014.22 1014.76 1015.31 1015.86 1016.41 1016.93 1017.42 1017.89 1018.31 1018.70 1019.05
1010.05 1009.71 1009.45 1009.27 1009.18 1009.17 1009.25 1009.40 1009.60 1009.84 1010.11 1010.37 1010.63 1010.85 1011.03 1011.15 1011.23 1011.25 1011.22 1011.17 1011.11 1011.05 1011.02 1011.02 1011.07 1011.18 1011.36 1011.60 1011.90 1012.26 1012.67 1013.13 1013.63 1014.15 1014.69 1015.23 1015.77 1016.29 1016.78 1017.24 1017.66 1018.04 1018.40 1018.72
1009.94 1009.69 1009.52 1009.42 1009.40 1009.43 1009.53 1009.67 1009.85 1010.05 1010.27 1010.48 1010.67 1010.84 1010.98 1011.08 1011.13 1011.15 1011.14 1011.10 1011.06 1011.01 1010.98 1010.98 1011.03 1011.13 1011.28 1011.51 1011.79 1012.14 1012.55 1013.01 1013.51 1014.03 1014.57 1015.11 1015.64 1016.14 1016.60 1017.03 1017.41 1017.76 1018.08 1018.37
1010.02 1009.88 1009.79 1009.76 1009.78 1009.84 1009.93 1010.05 1010.19 1010.33 1010.48 1010.62 1010.74 1010.85 1010.94 1010.99 1011.03 1011.03 1011.02 1010.98 1010.94 1010.90 1010.88 1010.88 1010.91 1011.00 1011.14 1011.35 1011.62 1011.96 1012.37 1012.82 1013.32 1013.85 1014.38 1014.92 1015.44 1015.92 1016.36 1016.76 1017.12 1017.44 1017.72 1017.99
1010.22 1010.18 1010.17 1010.20 1010.25 1010.33 1010.41 1010.50 1010.59 1010.68 1010.76 1010.83 1010.89 1010.93 1010.97 1010.98 1010.98 1010.97 1010.93 1010.89 1010.84 1010.80 1010.77 1010.75 1010.78 1010.84 1010.97 1011.16 1011.42 1011.74 1012.14 1012.58 1013.08 1013.60 1014.13 1014.66 1015.17 1015.64 1016.07 1016.45 1016.78 1017.08 1017.35 1017.60
1010.48 1010.53 1010.60 1010.68 1010.76 1010.85 1010.93 1011.00 1011.06 1011.10 1011.13 1011.15 1011.16 1011.16 1011.15 1011.12 1011.09 1011.05 1010.99 1010.93 1010.86 1010.79 1010.74 1010.71 1010.71 1010.75 1010.85 1011.02 1011.25 1011.56 1011.93 1012.36 1012.84 1013.35 1013.87 1014.38 1014.88 1015.33 1015.75 1016.12 1016.44 1016.72 1016.97 1017.21
1010.79 1010.91 1011.03 1011.16 1011.27 1011.38 1011.47 1011.54 1011.59 1011.62 1011.63 1011.63 1011.61 1011.58 1011.54 1011.49 1011.43 1011.36 1011.27 1011.18 1011.08 1010.99 1010.90 1010.84 1010.81 1010.82 1010.89 1011.03 1011.24 1011.51 1011.86 1012.26 1012.71 1013.19 1013.69 1014.18 1014.65 1015.08 1015.48 1015.83 1016.14 1016.41 1016.65 1016.88
1011.15 1011.32 1011.49 1011.65 1011.80 1011.93 1012.04 1012.13 1012.20 1012.24 1012.26 1012.27 1012.25 1012.22 1012.17 1012.10 1012.02 1011.92 1011.81 1011.69 1011.56 1011.44 1011.32 1011.22 1011.16 1011.15 1011.18 1011.29 1011.46 1011.70 1012.01 1012.37 1012.78 1013.22 1013.68 1014.13 1014.56 1014.96 1015.33 1015.66 1015.95 1016.20 1016.43 1016.65
1011.58 1011.79 1011.99 1012.18 1012.36 1012.52 1012.66 1012.79 1012.89 1012.97 1013.02 1013.06 1013.06 1013.05 1013.00 1012.94 1012.85 1012.73 1012.60 1012.45 1012.30 1012.15 1012.00 1011.88 1011.79 1011.75 1011.76 1011.84 1011.98 1012.18 1012.44 1012.76 1013.12 1013.50 1013.90 1014.30 1014.68 1015.04 1015.36 1015.66 1015.92 1016.16 1016.38 1016.59
1012.13 1012.35 1012.57 1012.78 1012.98 1013.17 1013.35 1013.51 1013.66 1013.78 1013.88 1013.95 1014.00 1014.01 1013.98 1013.92 1013.83 1013.71 1013.57 1013.41 1013.24 1013.07 1012.91 1012.78 1012.68 1012.62 1012.62 1012.67 1012.78 1012.95 1013.17 1013.43 1013.73 1014.05 1014.38 1014.71 1015.03 1015.33 1015.60 1015.86 1016.09 1016.30 1016.50 1016.70
1012.79 1013.02 1013.24 1013.46 1013.68 1013.89 1014.10 1014.30 1014.48 1014.65 1014.79 1014.90 1014.98 1015.02 1015.01 1014.97 1014.89 1014.77 1014.63 1014.47 1014.29 1014.13 1013.97 1013.84 1013.74 1013.69 1013.68 1013.72 1013.81 1013.94 1014.12 1014.33 1014.57 1014.82 1015.07 1015.33 1015.58 1015.81 1016.03 1016.24 1016.43 1016.62 1016.81 1017.00
1013.56 1013.78 1014.00 1014.22 1014.44 1014.66 1014.89 1015.11 1015.32 1015.52 1015.69 1015.83 1015.94 1016.00 1016.01 1015.99 1015.91 1015.81 1015.67 1015.52 1015.36 1015.21 1015.07 1014.96 1014.88 1014.84 1014.84 1014.87 1014.95 1015.06 1015.20 1015.36 1015.54 1015.72 1015.90 1016.08 1016.26 1016.43 1016.59 1016.75 1016.92 1017.08 1017.26 1017.44
1014.36 1014.59 1014.80 1015.01 1015.23 1015.45 1015.68 1015.91 1016.13 1016.34 1016.53 1016.69 1016.80 1016.88 1016.91 1016.89 1016.83 1016.74 1016.62 1016.49 1016.35 1016.22 1016.11 1016.03 1015.98 1015.96 1015.97 1016.02 1016.09 1016.18 1016.29 1016.40 1016.52 1016.64 1016.75 1016.86 1016.98 1017.09 1017.21 1017.33 1017.47 1017.62 1017.79 1017.98
1015.14 1015.36 1015.57 1015.78 1015.99 1016.20 1016.42 1016.64 1016.86 1017.07 1017.26 1017.42 1017.54 1017.62 1017.65 1017.64 1017.60 1017.52 1017.42 1017.31 1017.20 1017.11 1017.03 1016.98 1016.96 1016.96 1016.99 1017.04 1017.11 1017.18 1017.26 1017.33 1017.40 1017.47 1017.52 1017.58 1017.64 1017.71 1017.79 1017.89 1018.01 1018.16 1018.33 1018.53
1015.82 1016.04 1016.25 1016.45 1016.65 1016.85 1017.06 1017.27 1017.48 1017.68 1017.86 1018.01 1018.12 1018.20 1018.24 1018.24 1018.20 1018.14 1018.06 1017.97 1017.89 1017.83 1017.78 1017.76 1017.76 1017.78 1017.82 1017.88 1017.93 1017.99 1018.04 1018.08 1018.10 1018.13 1018.14 1018.16 1018.18 1018.22 1018.29 1018.37 1018.49 1018.64 1018.82 1019.02
Thickness
5667 5673 5672 5672 5673 5669 5664 5665 5660 5670 5676 5695 5705 5710 5716 5719 5721 5722 5721 5722 5722 5722 5722 5721 5720 5719 5718 5717 5715 5714 5711 5710 5709 5709 5708 5706 5705 5703 5702 5701 5700 5698 5696 5695
5668 5674 5672 5671 5675 5675 5673 5674 5674 5677 5684 5705 5711 5713 5715 5717 5719 5719 5721 5723 5723 5723 5722 5721 5721 5719 5718 5716 5715 5713 5711 5710 5709 5707 5705 5704 5703 5701 5699 5698 5697 5695 5694 5692
5657 5667 5668 5664 5680 5680 5680 5683 5682 5680 5694 5707 5708 5711 5714 5717 5719 5720 5721 5723 5723 5724 5724 5724 5723 5721 5719 5718 5715 5712 5711 5709 5707 5706 5704 5702 5701 5698 5697 5695 5694 5692 5691 5690
5652 5660 5653 5676 5695 5694 5690 5692 5694 5697 5702 5707 5710 5715 5718 5720 5720 5721 5723 5724 5724 5725 5725 5725 5724 5722 5720 5717 5714 5712 5709 5707 5706 5704 5702 5700 5698 5696 5695 5693 5691 5690 5688 5687
5647 5649 5659 5680 5693 5693 5688 5690 5702 5702 5706 5709 5713 5714 5715 5722 5724 5725 5727 5727 5728 5728 5727 5725 5723 5721 5718 5715 5713 5710 5708 5707 5705 5703 5701 5698 5696 5694 5692 5690 5689 5687 5686 5684
5645 5649 5651 5677 5697 5701 5695 5687 5706 5707 5706 5708 5709 5698 5707 5721 5724 5725 5727 5728 5727 5726 5725 5722 5721 5720 5716 5713 5711 5710 5710 5708 5705 5703 5701 5698 5696 5693 5691 5689 5686 5684 5682 5681
5644 5648 5660 5685 5697 5698 5680 5688 5709 5710 5710 5709 5706 5708 5715 5721 5723 5725 5726 5727 5727 5725 5723 5722 5721 5719 5715 5713 5712 5713 5711 5707 5704 5702 5700 5698 5694 5691 5688 5685 5682 5679 5678 5676
5643 5646 5659 5692 5693 5688 5694 5707 5710 5710 5711 5711 5711 5713 5715 5718 5719 5721 5722 5723 5723 5721 5720 5719 5719 5717 5714 5712 5714 5711 5708 5705 5702 5699 5697 5695 5691 5687 5684 5681 5677 5674 5673 5671
5661 5668 5684 5691 5695 5702 5704 5705 5708 5709 5711 5712 5711 5710 5712 5713 5715 5716 5717 5718 5718 5717 5715 5714 5715 5715 5712 5712 5710 5708 5704 5702 5699 5696 5694 5692 5688 5684 5680 5677 5674 5671 5669 5667
5663 5673 5683 5689 5695 5700 5704 5705 5708 5709 5710 5710 5708 5708 5709 5709 5709 5710 5712 5712 5713 5712 5710 5709 5710 5711 5711 5710 5708 5705 5701 5698 5695 5692 5689 5687 5685 5682 5679 5675 5672 5669 5667 5665
5663 5674 5681 5688 5692 5696 5700 5702 5704 5705 5706 5705 5705 5704 5704 5704 5704 5705 5706 5707 5707 5707 5706 5706 5706 5706 5706 5705 5704 5700 5697 5694 5691 5689 5687 5683 5681 5679 5678 5677 5676 5672 5668 5665
5666 5677 5677 5682 5689 5693 5695 5696 5698 5699 5698 5699 5700 5698 5699 5698 5699 5700 5701 5701 5701 5701 5701 5700 5701 5701 5700 5700 5699 5696 5692 5689 5687 5684 5681 5679 5676 5672 5672 5672 5671 5669 5667 5664
5674 5679 5679 5682 5685 5688 5689 5690 5691 5693 5692 5691 5692 5693 5693 5692 5692 5693 5694 5695 5695 5695 5695 5694 5694 5694 5694 5694 5694 5692 5689 5685 5682 5680 5677 5674 5671 5669 5665 5663 5663 5662 5661 5659
5670 5673 5672 5675 5677 5680 5682 5683 5684 5684 5684 5685 5685 5686 5686 5686 5686 5686 5686 5688 5689 5689 5688 5688 5687 5687 5688 5688 5687 5685 5683 5681 5678 5676 5673 5670 5667 5665 5662 5659 5655 5653 5653 5652
5663 5667 5667 5669 5670 5671 5673 5674 5673 5672 5674 5675 5677 5677 5678 5678 5677 5678 5679 5680 5680 5680 5679 5679 5679 5679 5680 5680 5679 5677 5675 5673 5671 5669 5666 5664 5661 5658 5655 5653 5650 5647 5644 5643
5653 5657 5658 5659 5660 5662 5663 5664 5663 5663 5664 5666 5667 5667 5668 5669 5669 5669 5670 5671 5671 5670 5670 5671 5671 5671 5672 5672 5671 5669 5667 5667 5664 5661 5658 5655 5653 5650 5647 5644 5641 5639 5637 5635
5644 5644 5647 5648 5650 5652 5653 5655 5655 5655 5656 5657 5658 5658 5658 5658 5658 5658 5658 5660 5661 5662 5662 5663 5663 5664 5664 5664 5662 5660 5658 5657 5656 5652 5649 5647 5645 5642 5639 5636 5634 5631 5630 5628
5640 5642 5643 5644 5643 5643 5643 5645 5646 5647 5647 5648 5649 5649 5648 5648 5647 5647 5648 5650 5651 5651 5652 5653 5655 5655 5655 5654 5653 5651 5649 5647 5645 5642 5640 5638 5636 5634 5631 5628 5626 5623 5620 5617
5630 5632 5633 5634 5634 5634 5634 5635 5635 5636 5637 5638 5638 5638 5638 5637 5637 5637 5639 5639 5640 5639 5640 5643 5645 5644 5644 5644 5643 5641 5638 5636 5634 5631 5630 5628 5625 5623 5620 5618 5615 5613 5610 5606
5617 5620 5621 5622 5623 5624 5624 5624 5625 5625 5626 5627 5627 5627 5626 5626 5626 5627 5627 5626 5626 5628 5630 5632 5632 5632 5632 5631 5631 5629 5626 5625 5622 5620 5617 5616 5613 5611 5609 5607 5604 5601 5598 5596
5605 5607 5609 5610 5610 5611 5613 5613 5614 5614 5615 5615 5615 5614 5613 5613 5614 5614 5615 5614 5615 5617 5619 5621 5620 5620 5619 5619 5618 5615 5614 5612 5610 5608 5605 5603 5601 5599 5596 5594 5592 5589 5586 5583
5593 5595 5596 5598 5598 5598 5599 5601 5603 5603 5603 5603 5603 5602 5602 5601 5601 5601 5601 5602 5604 5606 5606 5607 5607 5608 5607 5606 5603 5601 5600 5598 5596 5594 5592 5590 5588 5586 5583 5581 5578 5576 5573 5570
5580 5582 5584 5585 5586 5586 5587 5588 5589 5591 5591 5591 5590 5590 5589 5589 5589 5589 5588 5590 5592 5594 5594 5594 5595 5595 5594 5591 5589 5587 5585 5583 5581 5579 5577 5575 5573 5571 5569 5567 5564 5561 5558 5555
5567 5569 5571 5572 5573 5574 5573 5573 5575 5577 5577 5578 5577 5578 5577 5576 5575 5576 5577 5579 5580 5581 5580 5581 5582 5581 5579 5576 5573 5571 5569 5567 5565 5563 5561 5559 5556 5554 5552 5550 5548 5545 5542 5539
5554 5556 5557 5559 5559 5559 5559 5560 5561 5562 5563 5563 5563 5563 5564 5564 5564 5563 5563 5564 5566 5566 5565 5565 5566 5565 5562 5560 5557 5555 5553 5551 5549 5547 5545 5542 5540 5537 5535 5532 5530 5527 5525 5522
5541 5542 5543 5545 5546 5546 5546 5548 5548 5548 5548 5549 5548 5549 5549 5550 5550 5550 5549 5549 5550 5550 5548 5548 5547 5547 5545 5543 5541 5539 5537 5535 5532 5530 5527 5525 5523 5520 5518 5516 5513 5510 5507 5504
5527 5528 5529 5530 5530 5532 5533 5534 5534 5534 5535 5536 5535 5535 5535 5535 5536 5535 5535 5534 5533 5533 5532 5531 5530 5529 5528 5526 5524 5522 5520 5518 5516 5513 5511 5509 5506 5504 5501 5499 5496 5492 5489 5486